Time,TemperatureF,DewpointF,PressureIn,WindDirection,WindDirectionDegrees,WindSpeedMPH,WindSpeedGustMPH,Humidity,HourlyPrecipIn,Conditions,Clouds,dailyrainin,SoftwareType,DateUTC
2013-07-11 00:01:00,79.4,74.8,30.00,SSW,207,17.0,18.0,86,0.00,,---,0.00,VWS V14.01,2013-07-11 04:01:00,
2013-07-11 00:02:00,79.5,74.9,30.00,SW,218,18.0,19.0,86,0.00,,---,0.00,VWS V14.01,2013-07-11 04:02:00,
2013-07-11 00:07:00,79.6,75.1,30.01,SW,215,15.0,18.0,86,0.00,,---,0.00,VWS V14.01,2013-07-11 04:07:00,
2013-07-11 00:12:00,79.6,75.1,30.01,SW,219,17.0,19.0,86,0.00,,---,0.00,VWS V14.01,2013-07-11 04:12:00,
2013-07-11 00:17:00,79.4,74.8,30.01,SW,218,18.0,22.0,86,0.00,,---,0.00,VWS V14.01,2013-07-11 04:17:00,
2013-07-11 00:22:00,79.6,74.7,30.00,SW,216,18.0,18.0,85,0.00,,---,0.00,VWS V14.01,2013-07-11 04:22:00,
2013-07-11 00:27:00,79.7,75.2,30.00,SW,216,18.0,19.0,86,0.00,,---,0.00,VWS V14.01,2013-07-11 04:27:00,
2013-07-11 00:32:00,79.7,75.2,30.00,SW,215,14.0,18.0,86,0.00,,---,0.00,VWS V14.01,2013-07-11 04:32:00,
2013-07-11 00:37:00,79.6,75.1,30.00,SSW,212,16.0,18.0,86,0.00,,---,0.00,VWS V14.01,2013-07-11 04:37:00,
2013-07-11 00:42:00,79.6,75.1,30.00,SSW,209,17.0,20.0,86,0.00,,---,0.00,VWS V14.01,2013-07-11 04:42:00,
2013-07-11 00:47:00,79.7,75.2,30.00,SW,219,17.0,19.0,86,0.00,,---,0.00,VWS V14.01,2013-07-11 04:47:00,
2013-07-11 00:52:00,79.8,75.2,30.00,SW,217,14.0,17.0,86,0.00,,---,0.00,VWS V14.01,2013-07-11 04:52:00,
2013-07-11 00:57:00,79.8,75.2,30.00,SSW,213,14.0,17.0,86,0.00,,---,0.00,VWS V14.01,2013-07-11 04:57:00,
2013-07-11 01:02:00,79.7,75.2,30.00,SSW,211,16.0,19.0,86,0.00,,---,0.00,VWS V14.01,2013-07-11 05:02:00,
2013-07-11 01:07:00,79.8,75.2,30.00,SW,220,14.0,18.0,86,0.00,,---,0.00,VWS V14.01,2013-07-11 05:07:00,
2013-07-11 01:12:00,79.8,75.2,30.00,SW,219,16.0,18.0,86,0.00,,---,0.00,VWS V14.01,2013-07-11 05:12:00,
2013-07-11 01:17:00,79.9,75.3,30.00,SSW,212,15.0,16.0,86,0.00,,---,0.00,VWS V14.01,2013-07-11 05:17:00,
2013-07-11 01:22:00,79.9,75.7,29.99,SW,223,16.0,17.0,87,0.00,,---,0.00,VWS V14.01,2013-07-11 05:22:00,
2013-07-11 01:27:00,79.8,75.6,29.99,SW,218,18.0,19.0,87,0.00,,---,0.00,VWS V14.01,2013-07-11 05:27:00,
2013-07-11 01:32:00,78.9,74.4,29.99,WSW,241,12.0,21.0,86,0.00,,---,0.00,VWS V14.01,2013-07-11 05:32:00,
2013-07-11 01:37:00,77.7,73.9,29.99,West,273,15.0,18.0,88,0.00,,---,0.00,VWS V14.01,2013-07-11 05:37:00,
2013-07-11 01:42:00,77.2,73.7,29.99,West,263,13.0,14.0,89,0.00,,---,0.00,VWS V14.01,2013-07-11 05:42:00,
2013-07-11 01:47:00,77.2,74.0,29.98,WSW,250,10.0,12.0,90,0.00,,---,0.00,VWS V14.01,2013-07-11 05:47:00,
2013-07-11 01:52:00,77.3,74.1,29.98,WSW,251,11.0,11.0,90,0.00,,---,0.00,VWS V14.01,2013-07-11 05:52:00,
2013-07-11 01:57:00,77.6,74.4,29.98,West,260,10.0,12.0,90,0.00,,---,0.00,VWS V14.01,2013-07-11 05:57:00,
2013-07-11 02:02:00,77.6,74.4,29.98,WSW,258,9.0,10.0,90,0.00,,---,0.00,VWS V14.01,2013-07-11 06:02:00,
2013-07-11 02:07:00,77.8,74.6,29.97,WSW,247,9.0,9.0,90,0.00,,---,0.00,VWS V14.01,2013-07-11 06:07:00,
2013-07-11 02:12:00,78.1,74.9,29.97,WSW,241,5.0,5.0,90,0.00,,---,0.00,VWS V14.01,2013-07-11 06:12:00,
2013-07-11 02:17:00,78.4,75.2,29.97,SW,221,7.0,8.0,90,0.00,,---,0.00,VWS V14.01,2013-07-11 06:17:00,
2013-07-11 02:22:00,78.4,74.6,29.97,SSW,207,26.0,27.0,88,0.00,,---,0.00,VWS V14.01,2013-07-11 06:22:00,
2013-07-11 02:27:00,78.1,74.3,29.97,SSW,213,20.0,24.0,88,0.00,,---,0.00,VWS V14.01,2013-07-11 06:27:00,
2013-07-11 02:32:00,77.9,74.4,29.97,SW,215,17.0,19.0,89,0.00,,---,0.00,VWS V14.01,2013-07-11 06:32:00,
2013-07-11 02:37:00,77.9,74.1,29.96,SSW,210,19.0,21.0,88,0.00,,---,0.00,VWS V14.01,2013-07-11 06:37:00,
2013-07-11 02:42:00,77.9,74.1,29.96,SSW,205,17.0,20.0,88,0.00,,---,0.00,VWS V14.01,2013-07-11 06:42:00,
2013-07-11 02:47:00,78.0,74.2,29.96,SSW,206,14.0,18.0,88,0.00,,---,0.00,VWS V14.01,2013-07-11 06:47:00,
2013-07-11 02:52:00,78.2,74.4,29.96,SSW,205,13.0,16.0,88,0.00,,---,0.00,VWS V14.01,2013-07-11 06:52:00,
2013-07-11 02:57:00,78.5,75.0,29.95,SW,215,14.0,14.0,89,0.00,,---,0.00,VWS V14.01,2013-07-11 06:57:00,
2013-07-11 03:02:00,78.7,75.2,29.95,SSW,202,15.0,17.0,89,0.00,,---,0.00,VWS V14.01,2013-07-11 07:02:00,
2013-07-11 03:07:00,78.6,75.1,29.95,SSW,204,14.0,17.0,89,0.00,,---,0.00,VWS V14.01,2013-07-11 07:07:00,
2013-07-11 03:12:00,78.7,75.2,29.95,SSW,208,16.0,17.0,89,0.00,,---,0.00,VWS V14.01,2013-07-11 07:12:00,
2013-07-11 03:17:00,78.8,75.6,29.95,SSW,199,15.0,15.0,90,0.00,,---,0.00,VWS V14.01,2013-07-11 07:17:00,
2013-07-11 03:22:00,78.8,75.6,29.95,SSW,211,17.0,17.0,90,0.00,,---,0.00,VWS V14.01,2013-07-11 07:22:00,
2013-07-11 03:27:00,78.7,75.5,29.94,SSW,205,17.0,18.0,90,0.00,,---,0.00,VWS V14.01,2013-07-11 07:27:00,
2013-07-11 03:32:00,77.9,74.4,29.94,SW,228,14.0,21.0,89,0.00,,---,0.00,VWS V14.01,2013-07-11 07:32:00,
2013-07-11 03:37:00,77.8,74.3,29.94,SW,229,17.0,17.0,89,0.00,,---,0.00,VWS V14.01,2013-07-11 07:37:00,
2013-07-11 03:42:00,77.9,74.7,29.94,SW,226,17.0,19.0,90,0.00,,---,0.00,VWS V14.01,2013-07-11 07:42:00,
2013-07-11 03:47:00,77.8,74.6,29.94,SW,224,16.0,16.0,90,0.00,,---,0.00,VWS V14.01,2013-07-11 07:47:00,
2013-07-11 03:52:00,77.9,75.1,29.94,SW,229,12.0,15.0,91,0.00,,---,0.00,VWS V14.01,2013-07-11 07:52:00,
2013-07-11 03:57:00,77.6,74.8,29.94,SW,228,17.0,19.0,91,0.00,,---,0.00,VWS V14.01,2013-07-11 07:57:00,
2013-07-11 04:02:00,77.7,74.5,29.94,SW,229,16.0,16.0,90,0.00,,---,0.00,VWS V14.01,2013-07-11 08:02:00,
2013-07-11 04:07:00,77.8,74.6,29.94,SW,217,13.0,19.0,90,0.00,,---,0.00,VWS V14.01,2013-07-11 08:07:00,
2013-07-11 04:12:00,77.4,74.6,29.94,SSW,207,15.0,17.0,91,0.00,,---,0.00,VWS V14.01,2013-07-11 08:12:00,
2013-07-11 04:17:00,77.4,74.9,29.94,SW,229,11.0,15.0,92,0.00,,---,0.00,VWS V14.01,2013-07-11 08:17:00,
2013-07-11 04:22:00,77.4,74.9,29.94,SW,229,10.0,13.0,92,0.00,,---,0.00,VWS V14.01,2013-07-11 08:22:00,
2013-07-11 04:27:00,77.6,75.1,29.94,WSW,239,12.0,13.0,92,0.00,,---,0.00,VWS V14.01,2013-07-11 08:27:00,
2013-07-11 04:32:00,77.7,75.2,29.94,WSW,248,16.0,16.0,92,0.00,,---,0.00,VWS V14.01,2013-07-11 08:32:00,
2013-07-11 04:37:00,77.6,75.1,29.94,WSW,254,18.0,20.0,92,0.00,,---,0.00,VWS V14.01,2013-07-11 08:37:00,
2013-07-11 04:42:00,77.7,75.2,29.94,WSW,253,16.0,22.0,92,0.00,,---,0.00,VWS V14.01,2013-07-11 08:42:00,
2013-07-11 04:47:00,77.8,75.3,29.94,WSW,256,18.0,18.0,92,0.00,,---,0.00,VWS V14.01,2013-07-11 08:47:00,
2013-07-11 04:52:00,77.9,75.4,29.94,West,261,17.0,18.0,92,0.00,,---,0.00,VWS V14.01,2013-07-11 08:52:00,
2013-07-11 04:57:00,78.0,75.5,29.94,West,263,18.0,18.0,92,0.00,,---,0.00,VWS V14.01,2013-07-11 08:57:00,
2013-07-11 05:02:00,78.0,75.5,29.94,West,263,15.0,18.0,92,0.00,,---,0.00,VWS V14.01,2013-07-11 09:02:00,
2013-07-11 05:07:00,78.0,75.5,29.94,WSW,254,15.0,19.0,92,0.00,,---,0.00,VWS V14.01,2013-07-11 09:07:00,
2013-07-11 05:13:00,78.0,75.5,29.94,West,259,17.0,18.0,92,0.00,,---,0.00,VWS V14.01,2013-07-11 09:13:00,
2013-07-11 05:18:00,77.9,75.4,29.94,West,264,17.0,18.0,92,0.00,,---,0.00,VWS V14.01,2013-07-11 09:18:00,
2013-07-11 05:23:00,77.9,75.4,29.95,West,265,16.0,18.0,92,0.00,,---,0.00,VWS V14.01,2013-07-11 09:23:00,
2013-07-11 05:28:00,77.8,75.3,29.94,West,268,13.0,18.0,92,0.00,,---,0.00,VWS V14.01,2013-07-11 09:28:00,
2013-07-11 05:33:00,77.6,75.1,29.94,West,275,14.0,15.0,92,0.00,,---,0.00,VWS V14.01,2013-07-11 09:33:00,
2013-07-11 05:38:00,77.3,74.8,29.94,West,261,13.0,15.0,92,0.00,,---,0.00,VWS V14.01,2013-07-11 09:38:00,
2013-07-11 05:43:00,77.2,74.7,29.95,West,272,9.0,15.0,92,0.00,,---,0.00,VWS V14.01,2013-07-11 09:43:00,
2013-07-11 05:48:00,77.0,74.5,29.95,West,265,11.0,14.0,92,0.00,,---,0.00,VWS V14.01,2013-07-11 09:48:00,
2013-07-11 05:53:00,77.0,74.2,29.95,West,278,12.0,12.0,91,0.00,,---,0.00,VWS V14.01,2013-07-11 09:53:00,
2013-07-11 05:58:00,77.0,74.2,29.95,West,272,9.0,12.0,91,0.00,,---,0.00,VWS V14.01,2013-07-11 09:58:00,
2013-07-11 06:03:00,77.0,74.2,29.95,West,273,10.0,11.0,91,0.00,,---,0.00,VWS V14.01,2013-07-11 10:03:00,
2013-07-11 06:08:00,77.0,74.2,29.96,West,269,9.0,12.0,91,0.00,,---,0.00,VWS V14.01,2013-07-11 10:08:00,
2013-07-11 06:14:00,76.9,74.1,29.96,West,263,11.0,11.0,91,0.00,,---,0.00,VWS V14.01,2013-07-11 10:14:00,
2013-07-11 06:19:00,77.1,74.6,29.96,West,265,7.0,11.0,92,0.00,,---,0.00,VWS V14.01,2013-07-11 10:19:00,
2013-07-11 06:24:00,77.1,74.6,29.96,West,259,11.0,11.0,92,0.00,,---,0.00,VWS V14.01,2013-07-11 10:24:00,
2013-07-11 06:29:00,77.1,74.6,29.96,WSW,251,11.0,13.0,92,0.00,,---,0.00,VWS V14.01,2013-07-11 10:29:00,
2013-07-11 06:34:00,77.4,74.9,29.96,WSW,254,12.0,14.0,92,0.00,,---,0.00,VWS V14.01,2013-07-11 10:34:00,
2013-07-11 06:39:00,77.5,75.0,29.96,WSW,250,11.0,13.0,92,0.00,,---,0.00,VWS V14.01,2013-07-11 10:39:00,
2013-07-11 06:44:00,77.6,75.1,29.96,WSW,257,13.0,13.0,92,0.00,,---,0.00,VWS V14.01,2013-07-11 10:44:00,
2013-07-11 06:49:00,77.8,75.3,29.97,WSW,252,12.0,14.0,92,0.00,,---,0.00,VWS V14.01,2013-07-11 10:49:00,
2013-07-11 06:54:00,77.8,75.3,29.96,West,262,14.0,16.0,92,0.00,,---,0.00,VWS V14.01,2013-07-11 10:54:00,
2013-07-11 06:59:00,77.9,75.4,29.97,West,263,14.0,15.0,92,0.00,,---,0.00,VWS V14.01,2013-07-11 10:59:00,
2013-07-11 07:05:00,78.0,75.5,29.97,West,261,12.0,14.0,92,0.00,,---,0.00,VWS V14.01,2013-07-11 11:05:00,
2013-07-11 07:10:00,78.0,75.5,29.97,West,265,14.0,15.0,92,0.00,,---,0.00,VWS V14.01,2013-07-11 11:10:00,
2013-07-11 07:15:00,78.0,75.5,29.97,West,262,14.0,16.0,92,0.00,,---,0.00,VWS V14.01,2013-07-11 11:15:00,
2013-07-11 07:20:00,78.0,75.5,29.97,West,267,14.0,16.0,92,0.00,,---,0.00,VWS V14.01,2013-07-11 11:20:00,
2013-07-11 07:25:00,78.0,75.5,29.98,West,275,9.0,16.0,92,0.00,,---,0.00,VWS V14.01,2013-07-11 11:25:00,
2013-07-11 07:30:00,78.0,75.5,29.98,WNW,286,12.0,13.0,92,0.00,,---,0.00,VWS V14.01,2013-07-11 11:30:00,
2013-07-11 07:35:00,78.0,75.5,29.97,West,261,9.0,15.0,92,0.00,,---,0.00,VWS V14.01,2013-07-11 11:35:00,
2013-07-11 07:40:00,78.1,75.6,29.98,West,265,7.0,11.0,92,0.00,,---,0.00,VWS V14.01,2013-07-11 11:40:00,
2013-07-11 07:45:00,78.1,75.6,29.98,West,279,6.0,10.0,92,0.00,,---,0.00,VWS V14.01,2013-07-11 11:45:00,
2013-07-11 07:50:00,78.1,75.6,29.98,WNW,282,6.0,6.0,92,0.00,,---,0.00,VWS V14.01,2013-07-11 11:50:00,
2013-07-11 07:55:00,78.2,75.4,29.98,West,260,11.0,11.0,91,0.00,,---,0.00,VWS V14.01,2013-07-11 11:55:00,
2013-07-11 08:00:00,78.2,75.4,29.98,West,262,13.0,13.0,91,0.00,,---,0.00,VWS V14.01,2013-07-11 12:00:00,
2013-07-11 08:06:00,78.1,75.3,29.99,WSW,254,12.0,12.0,91,0.00,,---,0.00,VWS V14.01,2013-07-11 12:06:00,
2013-07-11 08:11:00,78.3,75.5,29.98,WSW,254,15.0,15.0,91,0.00,,---,0.00,VWS V14.01,2013-07-11 12:11:00,
2013-07-11 08:16:00,78.2,75.4,29.98,WSW,242,8.0,13.0,91,0.00,,---,0.00,VWS V14.01,2013-07-11 12:16:00,
2013-07-11 08:21:00,78.1,75.3,29.98,WSW,242,12.0,13.0,91,0.00,,---,0.00,VWS V14.01,2013-07-11 12:21:00,
2013-07-11 08:26:00,77.8,75.0,29.98,WSW,246,14.0,14.0,91,0.00,,---,0.00,VWS V14.01,2013-07-11 12:26:00,
2013-07-11 08:31:00,77.9,75.4,29.98,WSW,251,11.0,12.0,92,0.00,,---,0.00,VWS V14.01,2013-07-11 12:31:00,
2013-07-11 08:36:00,77.8,75.3,29.98,SW,232,7.0,8.0,92,0.00,,---,0.00,VWS V14.01,2013-07-11 12:36:00,
2013-07-11 08:41:00,77.7,75.2,29.98,WSW,252,7.0,8.0,92,0.00,,---,0.00,VWS V14.01,2013-07-11 12:41:00,
2013-07-11 08:46:00,77.6,75.1,29.98,WSW,252,12.0,14.0,92,0.00,,---,0.00,VWS V14.01,2013-07-11 12:46:00,
2013-07-11 08:52:00,77.7,75.2,29.98,WSW,256,12.0,13.0,92,0.00,,---,0.00,VWS V14.01,2013-07-11 12:52:00,
2013-07-11 08:57:00,77.8,75.3,29.98,WSW,257,11.0,12.0,92,0.00,,---,0.00,VWS V14.01,2013-07-11 12:57:00,
2013-07-11 09:02:00,77.9,75.4,29.98,West,262,12.0,12.0,92,0.00,,---,0.00,VWS V14.01,2013-07-11 13:02:00,
2013-07-11 09:07:00,78.0,75.5,29.98,West,265,10.0,11.0,92,0.00,,---,0.00,VWS V14.01,2013-07-11 13:07:00,
2013-07-11 09:13:00,78.1,75.6,29.98,West,259,10.0,10.0,92,0.00,,---,0.00,VWS V14.01,2013-07-11 13:13:00,
2013-07-11 09:18:00,78.0,75.2,29.98,West,260,9.0,10.0,91,0.00,,---,0.00,VWS V14.01,2013-07-11 13:18:00,
2013-07-11 09:23:00,78.3,75.5,29.97,WSW,256,8.0,9.0,91,0.00,,---,0.00,VWS V14.01,2013-07-11 13:23:00,
2013-07-11 09:28:00,78.6,75.8,29.97,WSW,252,8.0,9.0,91,0.00,,---,0.00,VWS V14.01,2013-07-11 13:28:00,
2013-07-11 09:33:00,78.7,75.9,29.97,WSW,245,9.0,10.0,91,0.00,,---,0.00,VWS V14.01,2013-07-11 13:33:00,
2013-07-11 09:38:00,78.4,75.2,29.97,WSW,249,11.0,11.0,90,0.00,,---,0.00,VWS V14.01,2013-07-11 13:38:00,
2013-07-11 09:44:00,78.6,75.8,29.97,WSW,255,9.0,10.0,91,0.00,,---,0.00,VWS V14.01,2013-07-11 13:44:00,
2013-07-11 09:49:00,78.8,75.6,29.97,WSW,254,11.0,12.0,90,0.00,,---,0.00,VWS V14.01,2013-07-11 13:49:00,
2013-07-11 09:54:00,78.8,75.6,29.97,WSW,252,12.0,12.0,90,0.00,,---,0.00,VWS V14.01,2013-07-11 13:54:00,
2013-07-11 09:59:00,78.7,75.5,29.97,WSW,254,10.0,12.0,90,0.00,,---,0.00,VWS V14.01,2013-07-11 13:59:00,
2013-07-11 10:04:00,78.8,75.3,29.97,WSW,249,10.0,12.0,89,0.00,,---,0.00,VWS V14.01,2013-07-11 14:04:00,
2013-07-11 10:09:00,78.8,75.3,29.97,WSW,250,10.0,12.0,89,0.00,,---,0.00,VWS V14.01,2013-07-11 14:09:00,
2013-07-11 10:14:00,78.9,75.4,29.97,WSW,244,9.0,12.0,89,0.00,,---,0.00,VWS V14.01,2013-07-11 14:14:00,
2013-07-11 10:19:00,78.8,75.3,29.97,WSW,237,8.0,13.0,89,0.00,,---,0.00,VWS V14.01,2013-07-11 14:19:00,
2013-07-11 10:24:00,78.7,75.2,29.97,WSW,242,7.0,12.0,89,0.00,,---,0.00,VWS V14.01,2013-07-11 14:24:00,
2013-07-11 10:30:00,78.8,75.3,29.97,WSW,237,8.0,8.0,89,0.00,,---,0.00,VWS V14.01,2013-07-11 14:30:00,
2013-07-11 10:35:00,78.7,75.5,29.97,SW,231,8.0,9.0,90,0.00,,---,0.00,VWS V14.01,2013-07-11 14:35:00,
2013-07-11 10:40:00,78.7,75.5,29.97,SW,232,8.0,10.0,90,0.00,,---,0.00,VWS V14.01,2013-07-11 14:40:00,
2013-07-11 10:45:00,78.6,75.4,29.96,SW,229,10.0,11.0,90,0.00,,---,0.00,VWS V14.01,2013-07-11 14:45:00,
2013-07-11 10:50:00,78.6,75.4,29.96,SW,226,10.0,11.0,90,0.00,,---,0.00,VWS V14.01,2013-07-11 14:50:00,
2013-07-11 10:55:00,78.6,75.1,29.96,SW,233,9.0,10.0,89,0.00,,---,0.00,VWS V14.01,2013-07-11 14:55:00,
2013-07-11 11:00:00,78.7,75.2,29.97,SW,223,10.0,12.0,89,0.00,,---,0.00,VWS V14.01,2013-07-11 15:00:00,
2013-07-11 11:05:00,78.8,75.3,29.97,SW,232,10.0,14.0,89,0.00,,---,0.00,VWS V14.01,2013-07-11 15:05:00,
2013-07-11 11:11:00,78.6,74.8,29.97,SW,235,9.0,11.0,88,0.00,,---,0.00,VWS V14.01,2013-07-11 15:11:00,
2013-07-11 11:16:00,78.8,74.9,29.97,WSW,241,8.0,10.0,88,0.00,,---,0.00,VWS V14.01,2013-07-11 15:16:00,
2013-07-11 11:21:00,78.9,75.4,29.97,SW,232,8.0,8.0,89,0.00,,---,0.00,VWS V14.01,2013-07-11 15:21:00,
2013-07-11 11:26:00,78.9,75.4,29.97,SW,236,10.0,10.0,89,0.00,,---,0.00,VWS V14.01,2013-07-11 15:26:00,
2013-07-11 11:31:00,78.7,74.8,29.97,WSW,237,10.0,10.0,88,0.00,,---,0.00,VWS V14.01,2013-07-11 15:31:00,
2013-07-11 11:36:00,78.9,75.1,29.97,WSW,244,8.0,10.0,88,0.00,,---,0.00,VWS V14.01,2013-07-11 15:36:00,
2013-07-11 11:41:00,79.0,75.2,29.97,WSW,242,9.0,10.0,88,0.00,,---,0.00,VWS V14.01,2013-07-11 15:41:00,
2013-07-11 11:46:00,79.1,75.2,29.97,SW,229,10.0,11.0,88,0.00,,---,0.00,VWS V14.01,2013-07-11 15:46:00,
2013-07-11 11:51:00,79.0,74.8,29.97,SW,232,8.0,12.0,87,0.00,,---,0.00,VWS V14.01,2013-07-11 15:51:00,
2013-07-11 11:56:00,79.1,75.2,29.97,SW,234,10.0,11.0,88,0.00,,---,0.00,VWS V14.01,2013-07-11 15:56:00,
2013-07-11 12:01:00,79.2,75.3,29.97,SW,236,8.0,10.0,88,0.00,,---,0.00,VWS V14.01,2013-07-11 16:01:00,
2013-07-11 12:07:00,79.2,75.3,29.97,SW,235,8.0,9.0,88,0.00,,---,0.00,VWS V14.01,2013-07-11 16:07:00,
2013-07-11 12:12:00,79.2,75.0,29.97,WSW,238,10.0,11.0,87,0.00,,---,0.00,VWS V14.01,2013-07-11 16:12:00,
2013-07-11 12:17:00,79.4,74.8,29.97,WSW,238,11.0,12.0,86,0.00,,---,0.00,VWS V14.01,2013-07-11 16:17:00,
2013-07-11 12:22:00,79.5,74.9,29.97,SW,234,9.0,11.0,86,0.00,,---,0.00,VWS V14.01,2013-07-11 16:22:00,
2013-07-11 12:27:00,79.5,74.9,29.97,SW,236,10.0,11.0,86,0.00,,---,0.00,VWS V14.01,2013-07-11 16:27:00,
2013-07-11 12:32:00,79.7,75.2,29.97,SW,232,10.0,11.0,86,0.00,,---,0.00,VWS V14.01,2013-07-11 16:32:00,
2013-07-11 12:37:00,79.7,75.5,29.97,SW,232,12.0,14.0,87,0.00,,---,0.00,VWS V14.01,2013-07-11 16:37:00,
2013-07-11 12:42:00,79.6,75.1,29.96,SW,234,12.0,13.0,86,0.00,,---,0.00,VWS V14.01,2013-07-11 16:42:00,
2013-07-11 12:47:00,79.3,74.8,29.96,SW,234,10.0,14.0,86,0.00,,---,0.00,VWS V14.01,2013-07-11 16:47:00,
2013-07-11 12:52:00,79.0,74.8,29.96,SW,230,8.0,11.0,87,0.00,,---,0.00,VWS V14.01,2013-07-11 16:52:00,
2013-07-11 12:57:00,78.8,74.6,29.96,SW,230,9.0,12.0,87,0.00,,---,0.00,VWS V14.01,2013-07-11 16:57:00,
2013-07-11 13:02:00,78.9,74.7,29.96,SW,227,8.0,12.0,87,0.00,,---,0.00,VWS V14.01,2013-07-11 17:02:00,
2013-07-11 13:07:00,79.1,74.6,29.96,SW,227,11.0,12.0,86,0.00,,---,0.00,VWS V14.01,2013-07-11 17:07:00,
2013-07-11 13:12:00,79.2,74.3,29.96,SW,227,11.0,14.0,85,0.00,,---,0.00,VWS V14.01,2013-07-11 17:12:00,
2013-07-11 13:17:00,79.3,74.1,29.96,SW,229,12.0,15.0,84,0.00,,---,0.00,VWS V14.01,2013-07-11 17:17:00,
2013-07-11 13:23:00,79.5,74.2,29.96,SW,223,11.0,13.0,84,0.00,,---,0.00,VWS V14.01,2013-07-11 17:23:00,
2013-07-11 13:28:00,79.6,74.7,29.96,SW,229,10.0,12.0,85,0.00,,---,0.00,VWS V14.01,2013-07-11 17:28:00,
2013-07-11 13:33:00,79.6,74.7,29.95,SW,223,11.0,14.0,85,0.00,,---,0.00,VWS V14.01,2013-07-11 17:33:00,
2013-07-11 13:38:00,79.6,74.7,29.95,SW,219,14.0,16.0,85,0.00,,---,0.00,VWS V14.01,2013-07-11 17:38:00,
2013-07-11 13:43:00,79.7,75.2,29.95,SW,218,17.0,17.0,86,0.00,,---,0.00,VWS V14.01,2013-07-11 17:43:00,
2013-07-11 13:48:00,79.7,75.5,29.95,SW,221,18.0,19.0,87,0.00,,---,0.00,VWS V14.01,2013-07-11 17:48:00,
2013-07-11 13:54:00,79.6,75.4,29.95,SW,224,14.0,18.0,87,0.00,,---,0.00,VWS V14.01,2013-07-11 17:54:00,
2013-07-11 13:59:00,79.6,75.4,29.95,SW,222,15.0,16.0,87,0.00,,---,0.00,VWS V14.01,2013-07-11 17:59:00,
2013-07-11 14:04:00,79.6,75.4,29.95,SW,222,16.0,17.0,87,0.00,,---,0.00,VWS V14.01,2013-07-11 18:04:00,
2013-07-11 14:09:00,79.7,75.8,29.94,SW,215,14.0,17.0,88,0.00,,---,0.00,VWS V14.01,2013-07-11 18:09:00,
2013-07-11 14:14:00,79.7,75.8,29.95,SW,226,12.0,15.0,88,0.00,,---,0.00,VWS V14.01,2013-07-11 18:14:00,
2013-07-11 14:19:00,79.6,75.7,29.94,SW,225,12.0,14.0,88,0.00,,---,0.00,VWS V14.01,2013-07-11 18:19:00,
2013-07-11 14:24:00,79.7,76.2,29.94,SW,218,12.0,14.0,89,0.00,,---,0.00,VWS V14.01,2013-07-11 18:24:00,
2013-07-11 14:29:00,79.7,76.2,29.94,SW,215,11.0,14.0,89,0.00,,---,0.00,VWS V14.01,2013-07-11 18:29:00,
2013-07-11 14:34:00,79.7,76.2,29.93,SW,221,11.0,13.0,89,0.00,,---,0.00,VWS V14.01,2013-07-11 18:34:00,
2013-07-11 14:39:00,79.7,75.8,29.94,SW,223,14.0,15.0,88,0.00,,---,0.00,VWS V14.01,2013-07-11 18:39:00,
2013-07-11 14:44:00,79.8,75.9,29.93,SW,234,19.0,21.0,88,0.00,,---,0.00,VWS V14.01,2013-07-11 18:44:00,
2013-07-11 14:49:00,79.5,75.6,29.93,WSW,237,13.0,19.0,88,0.00,,---,0.00,VWS V14.01,2013-07-11 18:49:00,
2013-07-11 14:54:00,79.5,75.6,29.93,SW,230,16.0,20.0,88,0.00,,---,0.00,VWS V14.01,2013-07-11 18:54:00,
2013-07-11 15:00:00,79.3,74.8,29.93,SW,234,14.0,19.0,86,0.00,,---,0.00,VWS V14.01,2013-07-11 19:00:00,
2013-07-11 15:05:00,79.5,75.3,29.93,SW,226,17.0,21.0,87,0.00,,---,0.00,VWS V14.01,2013-07-11 19:05:00,
2013-07-11 15:10:00,79.5,75.3,29.93,SW,232,13.0,20.0,87,0.00,,---,0.00,VWS V14.01,2013-07-11 19:10:00,
2013-07-11 15:15:00,79.5,75.3,29.92,WSW,240,11.0,16.0,87,0.00,,---,0.00,VWS V14.01,2013-07-11 19:15:00,
2013-07-11 15:20:00,79.5,74.9,29.92,SW,230,12.0,15.0,86,0.00,,---,0.00,VWS V14.01,2013-07-11 19:20:00,
2013-07-11 15:25:00,79.6,75.1,29.92,SW,231,12.0,17.0,86,0.00,,---,0.00,VWS V14.01,2013-07-11 19:25:00,
2013-07-11 15:30:00,79.5,74.9,29.92,SW,234,14.0,18.0,86,0.00,,---,0.00,VWS V14.01,2013-07-11 19:30:00,
2013-07-11 15:35:00,79.6,74.7,29.92,SW,236,15.0,19.0,85,0.00,,---,0.00,VWS V14.01,2013-07-11 19:35:00,
2013-07-11 15:40:00,79.7,74.8,29.92,SW,220,17.0,20.0,85,0.00,,---,0.00,VWS V14.01,2013-07-11 19:40:00,
2013-07-11 15:45:00,79.7,74.8,29.92,SW,219,18.0,19.0,85,0.00,,---,0.00,VWS V14.01,2013-07-11 19:45:00,
2013-07-11 15:50:00,79.7,74.8,29.92,SW,222,20.0,24.0,85,0.00,,---,0.00,VWS V14.01,2013-07-11 19:50:00,
2013-07-11 15:55:00,79.9,74.6,29.91,SW,222,22.0,22.0,84,0.00,,---,0.00,VWS V14.01,2013-07-11 19:55:00,
2013-07-11 16:00:00,80.1,75.2,29.91,SW,225,15.0,22.0,85,0.00,,---,0.00,VWS V14.01,2013-07-11 20:00:00,
2013-07-11 16:05:00,79.9,75.0,29.91,SW,224,18.0,21.0,85,0.00,,---,0.00,VWS V14.01,2013-07-11 20:05:00,
2013-07-11 16:10:00,79.8,75.2,29.91,SW,225,15.0,20.0,86,0.00,,---,0.00,VWS V14.01,2013-07-11 20:10:00,
2013-07-11 16:15:00,79.8,75.2,29.91,SW,227,16.0,21.0,86,0.00,,---,0.00,VWS V14.01,2013-07-11 20:15:00,
2013-07-11 16:20:00,79.8,75.6,29.91,SW,218,16.0,22.0,87,0.00,,---,0.00,VWS V14.01,2013-07-11 20:20:00,
2013-07-11 16:25:00,79.7,75.2,29.91,SW,221,16.0,22.0,86,0.00,,---,0.00,VWS V14.01,2013-07-11 20:25:00,
2013-07-11 16:30:00,79.7,75.2,29.91,SW,221,23.0,23.0,86,0.00,,---,0.00,VWS V14.01,2013-07-11 20:30:00,
2013-07-11 16:35:00,79.7,75.2,29.91,SW,224,17.0,18.0,86,0.00,,---,0.00,VWS V14.01,2013-07-11 20:35:00,
2013-07-11 16:40:00,79.7,74.8,29.91,SW,229,20.0,21.0,85,0.00,,---,0.00,VWS V14.01,2013-07-11 20:40:00,
2013-07-11 16:45:00,79.8,74.5,29.91,SW,221,19.0,24.0,84,0.00,,---,0.00,VWS V14.01,2013-07-11 20:45:00,
2013-07-11 16:50:00,79.9,75.0,29.90,SW,225,16.0,18.0,85,0.00,,---,0.00,VWS V14.01,2013-07-11 20:50:00,
2013-07-11 16:55:00,79.7,74.8,29.90,SW,221,18.0,22.0,85,0.00,,---,0.00,VWS V14.01,2013-07-11 20:55:00,
2013-07-11 17:00:00,79.8,75.2,29.90,SSW,211,15.0,18.0,86,0.00,,---,0.00,VWS V14.01,2013-07-11 21:00:00,
2013-07-11 17:05:00,79.6,75.1,29.91,SW,214,19.0,19.0,86,0.00,,---,0.00,VWS V14.01,2013-07-11 21:05:00,
2013-07-11 17:10:00,79.4,74.8,29.90,SW,219,18.0,20.0,86,0.00,,---,0.00,VWS V14.01,2013-07-11 21:10:00,
2013-07-11 17:15:00,79.5,75.3,29.90,SW,214,18.0,19.0,87,0.00,,---,0.00,VWS V14.01,2013-07-11 21:15:00,
2013-07-11 17:21:00,79.6,75.4,29.90,SW,222,14.0,16.0,87,0.00,,---,0.00,VWS V14.01,2013-07-11 21:21:00,
2013-07-11 17:26:00,79.4,75.2,29.90,SW,221,16.0,17.0,87,0.00,,---,0.00,VWS V14.01,2013-07-11 21:26:00,
2013-07-11 17:31:00,79.6,75.4,29.90,SW,223,18.0,18.0,87,0.00,,---,0.00,VWS V14.01,2013-07-11 21:31:00,
2013-07-11 17:36:00,79.7,75.5,29.90,SW,215,18.0,18.0,87,0.00,,---,0.00,VWS V14.01,2013-07-11 21:36:00,
2013-07-11 17:42:00,79.6,75.4,29.90,SSW,213,17.0,18.0,87,0.00,,---,0.00,VWS V14.01,2013-07-11 21:42:00,
2013-07-11 17:47:00,79.6,75.4,29.90,SW,214,18.0,18.0,87,0.00,,---,0.00,VWS V14.01,2013-07-11 21:47:00,
2013-07-11 17:52:00,79.6,75.4,29.90,SW,221,16.0,18.0,87,0.00,,---,0.00,VWS V14.01,2013-07-11 21:52:00,
2013-07-11 17:57:00,79.4,74.8,29.90,SW,221,18.0,19.0,86,0.00,,---,0.00,VWS V14.01,2013-07-11 21:57:00,
2013-07-11 18:02:00,79.6,74.7,29.90,SW,221,15.0,18.0,85,0.00,,---,0.00,VWS V14.01,2013-07-11 22:02:00,
2013-07-11 18:07:00,79.7,74.8,29.89,SSW,210,17.0,18.0,85,0.00,,---,0.00,VWS V14.01,2013-07-11 22:07:00,
2013-07-11 18:12:00,79.8,74.5,29.90,SW,219,18.0,19.0,84,0.00,,---,0.00,VWS V14.01,2013-07-11 22:12:00,
2013-07-11 18:17:00,79.9,74.6,29.89,SW,215,17.0,19.0,84,0.00,,---,0.00,VWS V14.01,2013-07-11 22:17:00,
2013-07-11 18:22:00,79.8,74.5,29.89,SW,226,19.0,22.0,84,0.00,,---,0.00,VWS V14.01,2013-07-11 22:22:00,
2013-07-11 18:27:00,80.0,74.7,29.89,SW,225,16.0,20.0,84,0.00,,---,0.00,VWS V14.01,2013-07-11 22:27:00,
2013-07-11 18:32:00,80.0,74.7,29.89,SW,225,16.0,21.0,84,0.00,,---,0.00,VWS V14.01,2013-07-11 22:32:00,
2013-07-11 18:38:00,80.0,75.1,29.90,SW,231,16.0,18.0,85,0.00,,---,0.00,VWS V14.01,2013-07-11 22:38:00,
2013-07-11 18:43:00,79.9,75.3,29.89,SW,226,16.0,18.0,86,0.00,,---,0.00,VWS V14.01,2013-07-11 22:43:00,
2013-07-11 18:48:00,79.9,75.3,29.90,SW,226,11.0,16.0,86,0.00,,---,0.00,VWS V14.01,2013-07-11 22:48:00,
2013-07-11 18:53:00,79.9,75.3,29.90,SW,225,10.0,16.0,86,0.00,,---,0.00,VWS V14.01,2013-07-11 22:53:00,
2013-07-11 18:58:00,79.8,75.2,29.90,SW,227,13.0,18.0,86,0.00,,---,0.00,VWS V14.01,2013-07-11 22:58:00,
2013-07-11 19:03:00,79.7,75.2,29.90,SW,225,15.0,18.0,86,0.00,,---,0.00,VWS V14.01,2013-07-11 23:03:00,
2013-07-11 19:08:00,79.7,75.2,29.91,SW,227,17.0,18.0,86,0.00,,---,0.00,VWS V14.01,2013-07-11 23:08:00,
2013-07-11 19:13:00,79.8,75.6,29.91,SW,221,16.0,18.0,87,0.00,,---,0.00,VWS V14.01,2013-07-11 23:13:00,
2013-07-11 19:18:00,79.7,75.5,29.91,SW,227,16.0,17.0,87,0.00,,---,0.00,VWS V14.01,2013-07-11 23:18:00,
2013-07-11 19:23:00,79.6,75.4,29.91,SW,229,15.0,17.0,87,0.00,,---,0.00,VWS V14.01,2013-07-11 23:23:00,
2013-07-11 19:28:00,79.8,75.6,29.91,SW,233,11.0,17.0,87,0.00,,---,0.00,VWS V14.01,2013-07-11 23:28:00,
2013-07-11 19:33:00,79.7,75.8,29.92,SW,227,12.0,18.0,88,0.00,,---,0.00,VWS V14.01,2013-07-11 23:33:00,
2013-07-11 19:39:00,79.5,75.3,29.91,SW,236,11.0,19.0,87,0.00,,---,0.00,VWS V14.01,2013-07-11 23:39:00,
2013-07-11 19:44:00,79.7,75.8,29.92,SW,232,11.0,15.0,88,0.00,,---,0.00,VWS V14.01,2013-07-11 23:44:00,
2013-07-11 19:49:00,79.7,75.8,29.92,SW,225,12.0,15.0,88,0.00,,---,0.00,VWS V14.01,2013-07-11 23:49:00,
2013-07-11 19:54:00,79.6,75.7,29.92,SW,231,14.0,16.0,88,0.00,,---,0.00,VWS V14.01,2013-07-11 23:54:00,
2013-07-11 19:59:00,79.6,76.1,29.92,SW,229,12.0,15.0,89,0.00,,---,0.00,VWS V14.01,2013-07-11 23:59:00,
2013-07-11 20:04:00,79.5,76.0,29.92,SW,224,13.0,16.0,89,0.00,,---,0.00,VWS V14.01,2013-07-12 00:04:00,
2013-07-11 20:09:00,79.5,76.0,29.91,SW,221,18.0,18.0,89,0.00,,---,0.00,VWS V14.01,2013-07-12 00:09:00,
2013-07-11 20:14:00,79.5,76.0,29.91,SW,221,16.0,17.0,89,0.00,,---,0.00,VWS V14.01,2013-07-12 00:14:00,
2013-07-11 20:19:00,79.5,76.0,29.91,SW,221,15.0,15.0,89,0.00,,---,0.00,VWS V14.01,2013-07-12 00:19:00,
2013-07-11 20:24:00,79.4,75.5,29.91,SW,230,13.0,18.0,88,0.00,,---,0.00,VWS V14.01,2013-07-12 00:24:00,
2013-07-11 20:29:00,79.4,75.5,29.91,SW,219,15.0,18.0,88,0.00,,---,0.00,VWS V14.01,2013-07-12 00:29:00,
2013-07-11 20:34:00,79.5,75.6,29.90,SW,222,18.0,19.0,88,0.00,,---,0.00,VWS V14.01,2013-07-12 00:34:00,
2013-07-11 20:39:00,79.5,75.6,29.90,SW,217,16.0,18.0,88,0.00,,---,0.00,VWS V14.01,2013-07-12 00:39:00,
2013-07-11 20:44:00,79.4,75.5,29.90,SW,228,15.0,17.0,88,0.00,,---,0.00,VWS V14.01,2013-07-12 00:44:00,
2013-07-11 20:49:00,79.5,75.6,29.90,SW,227,12.0,17.0,88,0.00,,---,0.00,VWS V14.01,2013-07-12 00:49:00,
2013-07-11 20:54:00,79.4,75.5,29.91,SW,221,14.0,17.0,88,0.00,,---,0.00,VWS V14.01,2013-07-12 00:54:00,
2013-07-11 20:59:00,79.5,75.6,29.91,SW,223,14.0,16.0,88,0.00,,---,0.00,VWS V14.01,2013-07-12 00:59:00,
2013-07-11 21:05:00,79.4,75.2,29.91,SW,224,14.0,16.0,87,0.00,,---,0.00,VWS V14.01,2013-07-12 01:05:00,
2013-07-11 21:10:00,79.5,75.3,29.90,SW,224,17.0,17.0,87,0.00,,---,0.00,VWS V14.01,2013-07-12 01:10:00,
2013-07-11 21:15:00,79.6,75.4,29.90,SW,215,15.0,19.0,87,0.00,,---,0.00,VWS V14.01,2013-07-12 01:15:00,
2013-07-11 21:20:00,79.7,75.2,29.90,SW,225,14.0,16.0,86,0.00,,---,0.00,VWS V14.01,2013-07-12 01:20:00,
2013-07-11 21:25:00,79.7,75.5,29.90,SW,226,14.0,17.0,87,0.00,,---,0.00,VWS V14.01,2013-07-12 01:25:00,
2013-07-11 21:30:00,79.6,75.1,29.91,SW,221,15.0,18.0,86,0.00,,---,0.00,VWS V14.01,2013-07-12 01:30:00,
2013-07-11 21:35:00,79.7,75.2,29.91,SW,230,15.0,17.0,86,0.00,,---,0.00,VWS V14.01,2013-07-12 01:35:00,
2013-07-11 21:40:00,79.7,75.5,29.91,SW,223,13.0,16.0,87,0.00,,---,0.00,VWS V14.01,2013-07-12 01:40:00,
2013-07-11 21:45:00,79.6,75.1,29.91,SW,225,14.0,16.0,86,0.00,,---,0.00,VWS V14.01,2013-07-12 01:45:00,
2013-07-11 21:50:00,79.6,75.4,29.91,SW,232,11.0,12.0,87,0.00,,---,0.00,VWS V14.01,2013-07-12 01:50:00,
2013-07-11 21:55:00,79.6,75.4,29.91,SW,230,12.0,13.0,87,0.00,,---,0.00,VWS V14.01,2013-07-12 01:55:00,
2013-07-11 22:00:00,79.6,75.1,29.92,SW,232,12.0,14.0,86,0.00,,---,0.00,VWS V14.01,2013-07-12 02:00:00,
2013-07-11 22:05:00,79.6,75.4,29.92,SW,223,16.0,16.0,87,0.00,,---,0.00,VWS V14.01,2013-07-12 02:05:00,
2013-07-11 22:10:00,79.7,75.5,29.92,SW,232,10.0,16.0,87,0.00,,---,0.00,VWS V14.01,2013-07-12 02:10:00,
2013-07-11 22:16:00,79.5,75.3,29.92,SW,225,15.0,15.0,87,0.00,,---,0.00,VWS V14.01,2013-07-12 02:16:00,
2013-07-11 22:21:00,79.5,75.6,29.92,SW,228,12.0,15.0,88,0.00,,---,0.00,VWS V14.01,2013-07-12 02:21:00,
2013-07-11 22:26:00,79.5,75.6,29.92,SW,229,14.0,16.0,88,0.00,,---,0.00,VWS V14.01,2013-07-12 02:26:00,
2013-07-11 22:31:00,79.5,75.3,29.92,SW,223,19.0,19.0,87,0.00,,---,0.00,VWS V14.01,2013-07-12 02:31:00,
2013-07-11 22:36:00,79.5,75.3,29.92,SW,236,14.0,19.0,87,0.00,,---,0.00,VWS V14.01,2013-07-12 02:36:00,
2013-07-11 22:41:00,79.5,75.3,29.92,SW,225,18.0,18.0,87,0.00,,---,0.00,VWS V14.01,2013-07-12 02:41:00,
2013-07-11 22:46:00,79.6,75.7,29.92,SW,229,17.0,17.0,88,0.00,,---,0.00,VWS V14.01,2013-07-12 02:46:00,
2013-07-11 22:51:00,79.6,75.7,29.92,SW,231,13.0,15.0,88,0.00,,---,0.00,VWS V14.01,2013-07-12 02:51:00,
2013-07-11 22:56:00,79.5,75.6,29.92,SW,222,15.0,15.0,88,0.00,,---,0.00,VWS V14.01,2013-07-12 02:56:00,
2013-07-11 23:02:00,79.5,75.6,29.92,SW,221,14.0,17.0,88,0.00,,---,0.00,VWS V14.01,2013-07-12 03:02:00,
2013-07-11 23:07:00,79.5,75.6,29.92,SW,225,14.0,17.0,88,0.00,,---,0.00,VWS V14.01,2013-07-12 03:07:00,
2013-07-11 23:12:00,79.4,75.5,29.92,SW,225,18.0,18.0,88,0.00,,---,0.00,VWS V14.01,2013-07-12 03:12:00,
2013-07-11 23:17:00,79.5,75.6,29.92,SW,231,14.0,18.0,88,0.00,,---,0.00,VWS V14.01,2013-07-12 03:17:00,
2013-07-11 23:23:00,79.5,75.3,29.92,SW,232,16.0,19.0,87,0.00,,---,0.00,VWS V14.01,2013-07-12 03:23:00,
2013-07-11 23:28:00,79.6,75.7,29.92,SW,229,16.0,18.0,88,0.00,,---,0.00,VWS V14.01,2013-07-12 03:28:00,
2013-07-11 23:33:00,79.4,75.5,29.92,SW,234,17.0,19.0,88,0.00,,---,0.00,VWS V14.01,2013-07-12 03:33:00,
2013-07-11 23:38:00,79.4,75.5,29.92,SW,229,14.0,21.0,88,0.00,,---,0.00,VWS V14.01,2013-07-12 03:38:00,
2013-07-11 23:43:00,79.5,75.3,29.92,WSW,242,14.0,20.0,87,0.00,,---,0.00,VWS V14.01,2013-07-12 03:43:00,
2013-07-11 23:48:00,79.4,74.8,29.92,SW,226,17.0,22.0,86,0.00,,---,0.00,VWS V14.01,2013-07-12 03:48:00,
2013-07-11 23:53:00,79.5,75.3,29.92,SW,231,14.0,20.0,87,0.00,,---,0.00,VWS V14.01,2013-07-12 03:53:00,
2013-07-11 23:58:00,79.6,75.4,29.92,SW,228,18.0,19.0,87,0.00,,---,0.00,VWS V14.01,2013-07-12 03:58:00,